Time,TemperatureF,DewpointF,PressureIn,WindDirection,WindDirectionDegrees,WindSpeedMPH,WindSpeedGustMPH,Humidity,HourlyPrecipIn,Conditions,Clouds,dailyrainin,SolarRadiationWatts/m^2,SoftwareType,DateUTC
2015-03-29 00:00:00,61.0,54.5,30.20,North,0,0.0,0.0,79,0.00,,,0.00,0.0,meteohub,2015-03-29 04:00:00,
2015-03-29 00:05:00,61.0,54.7,30.20,North,0,0.0,0.0,80,0.00,,,0.00,0.0,meteohub,2015-03-29 04:05:00,
2015-03-29 00:10:00,60.8,54.0,30.20,North,0,0.0,0.0,78,0.00,,,0.00,0.0,meteohub,2015-03-29 04:10:00,
2015-03-29 00:15:00,60.6,54.5,30.20,North,0,0.0,0.0,80,0.00,,,0.00,0.0,meteohub,2015-03-29 04:15:00,
2015-03-29 00:20:00,60.6,54.7,30.20,North,0,0.0,0.0,81,0.00,,,0.00,0.0,meteohub,2015-03-29 04:20:00,
2015-03-29 00:25:00,60.4,54.9,30.19,North,0,0.0,0.0,82,0.00,,,0.00,0.0,meteohub,2015-03-29 04:25:00,
2015-03-29 00:30:00,60.4,54.9,30.19,North,0,0.0,0.0,82,0.00,,,0.00,0.0,meteohub,2015-03-29 04:30:00,
2015-03-29 00:35:00,60.4,55.2,30.20,North,0,0.0,0.0,83,0.00,,,0.00,0.0,meteohub,2015-03-29 04:35:00,
2015-03-29 00:40:00,60.1,55.2,30.20,North,0,0.0,0.0,84,0.00,,,0.00,0.0,meteohub,2015-03-29 04:40:00,
2015-03-29 00:45:00,60.1,55.2,30.20,North,0,0.0,0.0,84,0.00,,,0.00,0.0,meteohub,2015-03-29 04:45:00,
2015-03-29 00:50:00,59.9,55.0,30.21,North,0,0.0,0.0,84,0.00,,,0.00,0.0,meteohub,2015-03-29 04:50:00,
2015-03-29 00:55:00,59.7,54.9,30.22,North,0,0.0,0.0,84,0.00,,,0.00,0.0,meteohub,2015-03-29 04:55:00,
2015-03-29 01:00:00,59.7,54.9,30.21,North,0,0.0,0.0,84,0.00,,,0.00,0.0,meteohub,2015-03-29 05:00:00,
2015-03-29 01:05:00,59.5,54.7,30.22,North,0,0.0,0.0,84,0.00,,,0.00,0.0,meteohub,2015-03-29 05:05:00,
2015-03-29 01:10:00,59.5,54.7,30.22,North,0,0.0,1.0,84,0.00,,,0.00,0.0,meteohub,2015-03-29 05:10:00,
2015-03-29 01:16:00,59.4,54.9,30.22,North,0,0.0,1.0,85,0.00,,,0.00,0.0,meteohub,2015-03-29 05:16:00,
2015-03-29 01:21:00,59.5,55.4,30.22,North,0,0.0,1.0,86,0.00,,,0.00,0.0,meteohub,2015-03-29 05:21:00,
2015-03-29 01:26:00,59.4,55.2,30.22,North,0,0.0,0.0,86,0.00,,,0.00,0.0,meteohub,2015-03-29 05:26:00,
2015-03-29 01:31:00,59.4,55.4,30.21,North,0,0.0,0.0,87,0.00,,,0.00,0.0,meteohub,2015-03-29 05:31:00,
2015-03-29 01:36:00,59.2,55.4,30.22,North,0,0.0,0.0,87,0.00,,,0.00,0.0,meteohub,2015-03-29 05:36:00,
2015-03-29 01:41:00,58.8,55.0,30.22,North,0,0.0,0.0,87,0.00,,,0.00,0.0,meteohub,2015-03-29 05:41:00,
2015-03-29 01:46:00,58.8,55.0,30.21,North,0,0.0,3.0,87,0.00,,,0.00,0.0,meteohub,2015-03-29 05:46:00,
2015-03-29 01:51:00,58.6,54.9,30.21,North,0,1.0,3.0,87,0.00,,,0.00,0.0,meteohub,2015-03-29 05:51:00,
2015-03-29 01:56:00,58.6,54.9,30.21,North,0,3.0,3.0,87,0.00,,,0.00,0.0,meteohub,2015-03-29 05:56:00,
2015-03-29 02:01:00,58.5,54.0,30.20,North,0,3.0,5.0,85,0.00,,,0.00,0.0,meteohub,2015-03-29 06:01:00,
2015-03-29 02:06:00,58.3,53.4,30.20,North,0,4.0,6.0,84,0.00,,,0.00,0.0,meteohub,2015-03-29 06:06:00,
2015-03-29 02:11:00,58.3,52.9,30.20,North,0,5.0,7.0,82,0.00,,,0.00,0.0,meteohub,2015-03-29 06:11:00,
2015-03-29 02:16:00,58.3,52.5,30.20,North,0,5.0,7.0,81,0.00,,,0.00,0.0,meteohub,2015-03-29 06:16:00,
2015-03-29 02:21:00,58.3,51.8,30.21,North,0,1.0,7.0,79,0.00,,,0.00,0.0,meteohub,2015-03-29 06:21:00,
2015-03-29 02:26:00,58.1,51.3,30.20,North,0,0.0,7.0,78,0.00,,,0.00,0.0,meteohub,2015-03-29 06:26:00,
2015-03-29 02:31:00,57.9,51.1,30.20,North,0,0.0,6.0,78,0.00,,,0.00,0.0,meteohub,2015-03-29 06:31:00,
2015-03-29 02:36:00,57.9,51.1,30.19,North,0,2.0,6.0,78,0.00,,,0.00,0.0,meteohub,2015-03-29 06:36:00,
2015-03-29 02:41:00,57.9,51.1,30.20,North,0,0.0,5.0,78,0.00,,,0.00,0.0,meteohub,2015-03-29 06:41:00,
2015-03-29 02:46:00,57.7,50.5,30.19,North,0,0.0,3.0,77,0.00,,,0.00,0.0,meteohub,2015-03-29 06:46:00,
2015-03-29 02:51:00,57.7,50.5,30.19,North,0,0.0,3.0,77,0.00,,,0.00,0.0,meteohub,2015-03-29 06:51:00,
2015-03-29 02:56:00,57.6,50.0,30.19,North,0,0.0,3.0,76,0.00,,,0.00,0.0,meteohub,2015-03-29 06:56:00,
2015-03-29 03:01:00,57.6,50.0,30.19,North,0,0.0,4.0,76,0.00,,,0.00,0.0,meteohub,2015-03-29 07:01:00,
2015-03-29 03:06:00,57.4,49.8,30.19,North,0,0.0,4.0,76,0.00,,,0.00,0.0,meteohub,2015-03-29 07:06:00,
2015-03-29 03:11:00,57.4,49.5,30.19,North,0,4.0,5.0,75,0.00,,,0.00,0.0,meteohub,2015-03-29 07:11:00,
2015-03-29 03:16:00,57.2,48.9,30.19,North,0,0.0,5.0,74,0.00,,,0.00,0.0,meteohub,2015-03-29 07:16:00,
2015-03-29 03:21:00,57.0,48.7,30.19,North,0,0.0,5.0,74,0.00,,,0.00,0.0,meteohub,2015-03-29 07:21:00,
2015-03-29 03:26:00,57.0,49.5,30.19,North,0,0.0,5.0,76,0.00,,,0.00,0.0,meteohub,2015-03-29 07:26:00,
2015-03-29 03:31:00,57.0,49.8,30.19,North,0,0.0,3.0,77,0.00,,,0.00,0.0,meteohub,2015-03-29 07:31:00,
2015-03-29 03:36:00,57.0,49.8,30.19,North,0,0.0,0.0,77,0.00,,,0.00,0.0,meteohub,2015-03-29 07:36:00,
2015-03-29 03:41:00,57.0,50.2,30.18,North,0,0.0,0.0,78,0.00,,,0.00,0.0,meteohub,2015-03-29 07:41:00,
2015-03-29 03:46:00,56.8,50.0,30.18,North,0,0.0,0.0,78,0.00,,,0.00,0.0,meteohub,2015-03-29 07:46:00,
2015-03-29 03:51:00,56.8,50.0,30.18,North,0,0.0,0.0,78,0.00,,,0.00,0.0,meteohub,2015-03-29 07:51:00,
2015-03-29 03:56:00,56.7,49.8,30.18,North,0,0.0,0.0,78,0.00,,,0.00,0.0,meteohub,2015-03-29 07:56:00,
2015-03-29 04:01:00,56.5,49.6,30.18,North,0,0.0,0.0,78,0.00,,,0.00,0.0,meteohub,2015-03-29 08:01:00,
2015-03-29 04:06:00,56.5,49.3,30.18,North,0,0.0,0.0,77,0.00,,,0.00,0.0,meteohub,2015-03-29 08:06:00,
2015-03-29 04:11:00,56.1,49.3,30.18,North,0,0.0,0.0,78,0.00,,,0.00,0.0,meteohub,2015-03-29 08:11:00,
2015-03-29 04:16:00,56.1,49.3,30.18,North,0,0.0,1.0,78,0.00,,,0.00,0.0,meteohub,2015-03-29 08:16:00,
2015-03-29 04:21:00,55.9,48.9,30.18,North,0,0.0,2.0,77,0.00,,,0.00,0.0,meteohub,2015-03-29 08:21:00,
2015-03-29 04:26:00,55.9,49.1,30.18,North,0,0.0,2.0,78,0.00,,,0.00,0.0,meteohub,2015-03-29 08:26:00,
2015-03-29 04:31:00,55.9,49.5,30.18,North,0,0.0,2.0,79,0.00,,,0.00,0.0,meteohub,2015-03-29 08:31:00,
2015-03-29 04:37:00,55.9,49.8,30.18,North,0,0.0,0.0,80,0.00,,,0.00,0.0,meteohub,2015-03-29 08:37:00,
2015-03-29 04:42:00,55.8,49.3,30.19,North,0,0.0,5.0,79,0.00,,,0.00,0.0,meteohub,2015-03-29 08:42:00,
2015-03-29 04:47:00,55.8,49.3,30.19,North,0,0.0,5.0,79,0.00,,,0.00,0.0,meteohub,2015-03-29 08:47:00,
2015-03-29 04:52:00,55.8,49.6,30.19,North,0,0.0,5.0,80,0.00,,,0.00,0.0,meteohub,2015-03-29 08:52:00,
2015-03-29 04:57:00,55.8,49.6,30.19,North,0,0.0,1.0,80,0.00,,,0.00,0.0,meteohub,2015-03-29 08:57:00,
2015-03-29 05:02:00,55.6,49.8,30.19,North,0,0.0,1.0,81,0.00,,,0.00,0.0,meteohub,2015-03-29 09:02:00,
2015-03-29 05:07:00,55.6,49.8,30.19,North,0,0.0,0.0,81,0.00,,,0.00,0.0,meteohub,2015-03-29 09:07:00,
2015-03-29 05:12:00,55.4,49.6,30.19,North,0,0.0,0.0,81,0.00,,,0.00,0.0,meteohub,2015-03-29 09:12:00,
2015-03-29 05:17:00,55.2,49.1,30.19,North,0,0.0,0.0,80,0.00,,,0.00,0.0,meteohub,2015-03-29 09:17:00,
2015-03-29 05:22:00,55.0,48.9,30.19,North,0,0.0,1.0,80,0.00,,,0.00,0.0,meteohub,2015-03-29 09:22:00,
2015-03-29 05:27:00,54.9,48.7,30.19,North,0,0.0,2.0,80,0.00,,,0.00,0.0,meteohub,2015-03-29 09:27:00,
2015-03-29 05:32:00,54.9,48.7,30.19,North,0,0.0,2.0,80,0.00,,,0.00,0.0,meteohub,2015-03-29 09:32:00,
2015-03-29 05:37:00,54.7,48.6,30.19,North,0,0.0,2.0,80,0.00,,,0.00,0.0,meteohub,2015-03-29 09:37:00,
2015-03-29 05:42:00,54.7,48.9,30.20,North,0,0.0,0.0,81,0.00,,,0.00,0.0,meteohub,2015-03-29 09:42:00,
2015-03-29 05:47:00,54.5,48.4,30.20,North,0,0.0,0.0,80,0.00,,,0.00,0.0,meteohub,2015-03-29 09:47:00,
2015-03-29 05:52:00,54.3,48.2,30.20,North,0,0.0,6.0,80,0.00,,,0.00,0.0,meteohub,2015-03-29 09:52:00,
2015-03-29 05:57:00,54.3,48.2,30.20,North,0,0.0,6.0,80,0.00,,,0.00,0.0,meteohub,2015-03-29 09:57:00,
2015-03-29 06:02:00,54.1,48.0,30.20,North,0,2.0,5.0,80,0.00,,,0.00,0.0,meteohub,2015-03-29 10:02:00,
2015-03-29 06:07:00,54.1,48.0,30.20,North,0,0.0,7.0,80,0.00,,,0.00,0.0,meteohub,2015-03-29 10:07:00,
2015-03-29 06:12:00,54.1,48.0,30.20,North,0,0.0,7.0,80,0.00,,,0.00,0.0,meteohub,2015-03-29 10:12:00,
2015-03-29 06:17:00,54.1,48.4,30.20,North,0,0.0,5.0,81,0.00,,,0.00,0.0,meteohub,2015-03-29 10:17:00,
2015-03-29 06:22:00,54.1,48.4,30.21,North,0,0.0,4.0,81,0.00,,,0.00,0.0,meteohub,2015-03-29 10:22:00,
2015-03-29 06:27:00,54.0,48.6,30.22,North,0,0.0,4.0,82,0.00,,,0.00,0.0,meteohub,2015-03-29 10:27:00,
2015-03-29 06:32:00,54.0,48.6,30.22,North,0,0.0,3.0,82,0.00,,,0.00,0.0,meteohub,2015-03-29 10:32:00,
2015-03-29 06:37:00,53.8,48.7,30.22,North,0,0.0,0.0,83,0.00,,,0.00,0.0,meteohub,2015-03-29 10:37:00,
2015-03-29 06:42:00,53.6,48.6,30.22,North,0,0.0,0.0,83,0.00,,,0.00,0.0,meteohub,2015-03-29 10:42:00,
2015-03-29 06:47:00,53.4,48.4,30.22,North,0,0.0,5.0,83,0.00,,,0.00,0.0,meteohub,2015-03-29 10:47:00,
2015-03-29 06:52:00,53.2,48.2,30.23,North,0,4.0,7.0,83,0.00,,,0.00,0.0,meteohub,2015-03-29 10:52:00,
2015-03-29 06:57:00,53.4,48.0,30.23,North,0,8.0,8.0,82,0.00,,,0.00,0.0,meteohub,2015-03-29 10:57:00,
2015-03-29 07:02:00,53.4,48.0,30.23,North,0,5.0,8.0,82,0.00,,,0.00,0.0,meteohub,2015-03-29 11:02:00,
2015-03-29 07:07:00,53.6,48.2,30.23,North,0,4.0,8.0,82,0.00,,,0.00,0.0,meteohub,2015-03-29 11:07:00,
2015-03-29 07:12:00,53.6,47.8,30.23,North,0,4.0,8.0,81,0.00,,,0.00,0.0,meteohub,2015-03-29 11:12:00,
2015-03-29 07:17:00,53.8,48.0,30.23,North,0,2.0,7.0,81,0.00,,,0.00,0.0,meteohub,2015-03-29 11:17:00,
2015-03-29 07:22:00,53.6,47.8,30.24,North,0,0.0,7.0,81,0.00,,,0.00,0.0,meteohub,2015-03-29 11:22:00,
2015-03-29 07:27:00,53.6,48.2,30.24,North,0,0.0,7.0,82,0.00,,,0.00,5.0,meteohub,2015-03-29 11:27:00,
2015-03-29 07:32:00,53.6,48.2,30.24,North,0,0.0,6.0,82,0.00,,,0.00,7.0,meteohub,2015-03-29 11:32:00,
2015-03-29 07:37:00,53.6,48.2,30.24,North,0,0.0,3.0,82,0.00,,,0.00,9.0,meteohub,2015-03-29 11:37:00,
2015-03-29 07:42:00,53.6,48.6,30.24,North,0,0.0,3.0,83,0.00,,,0.00,12.0,meteohub,2015-03-29 11:42:00,